UMMENDORF Weather Reports


Display with metric or nautical units.
time (UTC)temp
F
wind
direction
speed
MPH
gust
MPH
rain 1hr
in
rain 24hr
in
rain mn
in
humidity
%
barometer
mb
20260507050213 47 223 11.0 0.0 0.00 0.00 0.00 63 1013.2
20260507043211 47 229 12.0 0.0 0.00 0.00 0.00 62 1012.8
20260507040216 47 225 9.0 0.0 0.00 0.00 0.00 61 1012.5
20260507033211 47 209 14.0 0.0 0.00 0.00 0.00 61 1012.4
20260507030211 47 244 9.0 0.0 0.00 0.00 0.00 61 1012.2
20260507023211 47 235 16.0 0.0 0.00 0.00 0.00 62 1012.0
20260507020211 47 234 14.0 0.0 0.00 0.00 0.00 62 1011.9
20260507013212 47 265 10.0 0.0 0.00 0.00 0.00 63 1011.8
20260507010211 47 207 8.0 0.0 0.00 0.00 0.00 62 1011.8
20260507003209 47 204 9.0 0.0 0.00 0.00 0.00 62 1011.7
20260507000209 47 232 11.0 0.0 0.00 0.00 0.00 63 1011.7
20260506233209 47 247 11.0 0.0 0.00 0.00 0.00 64 1011.5
20260506230209 47 248 8.0 0.0 0.00 0.00 0.00 63 1011.4
20260506223209 47 220 4.0 0.0 0.00 0.00 0.00 63 1011.4
20260506213209 48 233 13.0 0.0 0.00 0.00 0.08 64 1011.0
20260506210210 48 240 6.0 0.0 0.00 0.00 0.08 62 1010.7
20260506203210 49 224 12.0 0.0 0.00 0.00 0.08 63 1010.8
20260506200210 49 195 10.0 0.0 0.00 0.00 0.08 63 1010.5
20260506193215 49 231 10.0 0.0 0.00 0.00 0.08 63 1010.2
20260506190211 49 223 14.0 0.0 0.00 0.00 0.08 61 1009.7
20260506183209 50 211 12.0 0.0 0.00 0.00 0.08 62 1009.2
20260506180216 50 213 13.0 0.0 0.00 0.00 0.08 62 1009.2
20260506173210 50 246 15.0 0.0 0.00 0.00 0.08 61 1008.9
20260506170215 51 256 14.0 0.0 0.00 0.00 0.08 60 1008.5
20260506163210 51 224 11.0 0.0 0.00 0.00 0.08 62 1008.4
20260506160210 51 260 12.0 0.0 0.00 0.00 0.08 63 1008.2
20260506153210 51 256 29.0 0.0 0.00 0.00 0.07 62 1007.8
20260506150210 53 219 26.0 0.0 0.00 0.00 0.04 60 1007.0
20260506143210 64 222 7.0 0.0 0.00 0.00 0.00 48 1005.6
20260506140210 62 98 7.0 0.0 0.00 0.00 0.00 48 1005.6
20260506133211 63 259 3.0 0.0 0.00 0.00 0.00 51 1005.9
20260506130211 64 226 5.0 0.0 0.00 0.00 0.00 49 1005.8
20260506123210 62 234 4.0 0.0 0.00 0.00 0.00 50 1005.7
20260506120210 62 43 3.0 0.0 0.00 0.00 0.00 50 1005.6
20260506113217 63 274 6.0 0.0 0.00 0.00 0.00 49 1005.8
20260506110210 62 13 8.0 0.0 0.00 0.00 0.00 50 1006.0
20260506100213 60 342 4.0 0.0 0.00 0.00 0.00 51 1006.3
20260506093211 60 270 4.0 0.0 0.00 0.00 0.00 49 1006.7
20260506090211 61 221 6.0 0.0 0.00 0.00 0.00 48 1006.8
20260506083211 59 287 5.0 0.0 0.00 0.00 0.00 50 1006.7
20260506080212 56 295 0.0 0.0 0.00 0.00 0.00 53 1007.0
20260506073211 55 308 3.0 0.0 0.00 0.00 0.00 57 1007.1
20260506070212 55 254 6.0 0.0 0.00 0.00 0.00 61 1007.2
20260506060210 50 138 3.0 0.0 0.00 0.00 0.00 72 1007.1